Tracking 29892 objects as of 21-Nov-2024
HD Live streaming from Space Station
objects crossing your sky now

STARLINK-5773

Track STARLINK-5773 now!
10-day predictions
STARLINK-5773 is classified as:


NORAD ID: 57074
Int'l Code: 2023-088AC
Perigee: 565.5 km
Apogee: 567.0 km
Inclination: 43.0 °
Period: 95.8 minutes
Semi major axis: 6937 km
RCS: Unknown
Launch date: June 22, 2023
Source: United States (US)
Launch site: AIR FORCE WESTERN TEST RANGE (AFWTR)
Your satellite tracking list
Your tracking list is empty




NASA's NSSDC Master Catalog

Two Line Element Set (TLE):
1 57074U 23088AC  24325.89578344 -.00000145  00000-0  43212-5 0  9996
2 57074  43.0022 161.5197 0001084 278.5833  81.4886 15.02536027 79108
Source of the keplerian elements: AFSPC